Terminal Aerodrome Forecast
Issued by NWS Shreveport, LA

Home | Current Version | Previous Version | Text Only | Print | Product List | Glossary On
Versions: 1 2 3 4 5 6 7 8 9 10 11 12 13 14
000
FTUS44 KSHV 042320
TAFELD
TAF
KELD 042320Z 0500/0524 00000KT P6SM VCSH SCT250
     FM050200 20004KT P6SM BKN080
      TEMPO 0507/0511 4SM BR
     FM051800 22006KT P6SM VCTS BKN025CB=

USA.gov is the U.S. government's official web portal to all federal, state and local government web resources and services.